2020-085T

Last updated on Thu Dec 03 2020 00:02:04 GMT+0000 (Coordinated Universal Time)

1 46946U 20085T 20337.43339981 .00009386 00000-0 43219-3 0 9997 2 46946 97.3676 111.7994 0014108 265.9437 94.0214 15.20429524 1871
UTC large
Height (km)
Speed (km/s)
/
Latitude / Longitude
Inclination (degrees)
Orbital Period (minutes)
Azimuth
Elevation
Range (km)
Doppler Factor

Next 0 passes for location: London (51.5072 / 0.1276)

Sorry there are no passes over London.